Regional Weather Roundup
Issued by NWS

Home | Current Version | Previous Version | Graphics & Text | Print | Product List | Glossary On
Versions: 1 2 3 4 5 6 7 8 9 10 11 12 13 14 15 16 17 18 19 20 21 22 23 24 25 26 27 28 29 30 31 32 33 34 35 36 37 38 39 40 41 42 43 44 45 46 47 48 49 50
160
ASUS45 KBOI 071010
RWRID

IDAHO REGIONAL WEATHER ROUNDUP
NATIONAL WEATHER SERVICE BOISE ID
300 AM MST SUN FEB 07 2016

NOTE: "FAIR" INDICATES FEW OR NO CLOUDS BELOW 12000 FEET
WITH NO SIGNIFICANT WEATHER AND/OR OBSTRUCTIONS TO VISIBILITY

IDZ012-014-071100-
SOUTHWEST IDAHO


CITY           SKY/WX    TMP DP  RH WIND       PRES   REMARKS
BOISE          PTCLDY    29  26  89 CALM      30.51R
CALDWELL       PTCLDY    27  26  96 CALM      30.54R FOG
MOUNTAIN HOME  CLEAR     28  28 100 CALM      30.51R
$$

IDZ016-017-071100-
SOUTHCENTRAL IDAHO


CITY           SKY/WX    TMP DP  RH WIND       PRES   REMARKS
BURLEY         PTCLDY    33  25  72 SW13      30.44R WCI  24
JEROME         CLEAR     32  26  78 SW7       30.47R WCI  26
TWIN FALLS     PTCLDY    35  25  66 S13       30.46R WCI  26
$$

IDZ019>023-071100-
SOUTHEAST IDAHO


CITY           SKY/WX    TMP DP  RH WIND       PRES   REMARKS
IDAHO FALLS    CLOUDY    10   8  92 W3        30.45R FOG
POCATELLO      CLOUDY    32  25  75 SW10      30.45R WCI  24
REXBURG        CLOUDY    14  12  92 CALM      30.44R FOG
$$

IDZ006-010-011-018-031-032-071100-
CENTRAL IDAHO MOUNTAINS


CITY           SKY/WX    TMP DP  RH WIND       PRES   REMARKS
MCCALL         FOG       20  18  92 CALM      30.44R VSB 1/4
HAILEY         CLEAR     19  16  86 NW9       30.44R WCI   9
STANLEY          N/A     23  15  71 VRB5      30.43R WCI  17
SALMON         CLOUDY    14  10  85 S5        30.43R WCI   6
CHALLIS        PTCLDY    19  12  74 CALM      30.40R
$$

IDZ002-004-006-007-026-071100-
NORTHERN IDAHO


CITY           SKY/WX    TMP DP  RH WIND       PRES   REMARKS
LEWISTON       CLEAR     33  27  78 CALM      30.52R
LOWELL           N/A     35  31  85 CALM      30.58R
COEUR D`ALENE  CLEAR     28  25  86 CALM      30.46S
MULLAN PASS    PTCLDY    19  15  84 NW3       30.36R
$$




USA.gov is the U.S. government's official web portal to all federal, state and local government web resources and services.